sat.trackr.live / text

‹ back to catalog

STARLINK-33686

NORAD 63422 · 2025-065Z

PAYLOAD ACTIVE UNKNOWN

§ Identity

Operator
Country
US
Launch date
2025-03-31
Launch site
AFETR
Launch vehicle
Mass (kg)
RCS (m²)

Purposes: comms

External: N2YO · Heavens-Above · Gunter

§ Orbital elements

Epoch: 2026-05-25T00:38:16.944864Z

Period
94.27 min
Inclination
43.0025°
Eccentricity
0.0001397
Mean motion
15.27594859 rev/d
Perigee alt
482.0 km
Apogee alt
484.0 km
Semi-major
6,861.1 km
B*
5.4348e-4
RAAN
35.9980°
Arg perigee
278.0384°
Mean anomaly
82.0309°
Rev number
6,451

§ Raw data

STARLINK-336861 63422U 25065Z   26145.02658501  .00014730  00000+0  54348-3 0  99912 63422  43.0025  35.9980 0001397 278.0384  82.0309 15.27594859 64512

JSON: /api/v1/satellites/63422 · /tle

For live sub-satellite position, see the globe view (requires WebGL).

§ Visibility from observer

Set your observer location to see the next 7 days of passes ≥ 10°. The values pass through the URL so the page stays shareable.

No JS? Fill the form by hand. The geolocation button needs JavaScript.